Tracking 28895 objects as of 29-May-2024
HD Live streaming from Space Station
objects crossing your sky now

STARLINK-5135

Track STARLINK-5135 now!
10-day predictions
STARLINK-5135 is classified as:


NORAD ID: 54005
Int'l Code: 2022-125AT
Perigee: 546.0 km
Apogee: 547.7 km
Inclination: 53.2 °
Period: 95.4 minutes
Semi major axis: 6917 km
RCS: Unknown
Launch date: October 5, 2022
Source: United States (US)
Launch site: AIR FORCE WESTERN TEST RANGE (AFWTR)
Your satellite tracking list
Your tracking list is empty




NASA's NSSDC Master Catalog

Two Line Element Set (TLE):
1 54005U 22125AT  24149.59088598  .00000694  00000-0  61695-4 0  9998
2 54005  53.2160 252.2483 0001234  89.0747 271.0386 15.08851865 91378
Source of the keplerian elements: AFSPC